sat.trackr.live / text

‹ back to catalog

QB50P1

NORAD 40025 · 2014-033R

PAYLOAD ACTIVE UNKNOWN

§ Identity

Operator
Country
BEL
Launch date
2014-06-19
Launch site
DLS
Launch vehicle
Mass (kg)
RCS (m²)
0.06

Purposes: comms, tech_demo

External: N2YO · Heavens-Above · Gunter

§ Orbital elements

Epoch: 2026-05-24T22:45:19.918080Z

Period
94.87 min
Inclination
98.0976°
Eccentricity
0.0007249
Mean motion
15.17843028 rev/d
Perigee alt
507.4 km
Apogee alt
517.4 km
Semi-major
6,890.5 km
B*
3.6516e-4
RAAN
154.4718°
Arg perigee
313.3224°
Mean anomaly
46.7403°
Rev number
64,950

§ Raw data

QB50P11 40025U 14033R   26144.94814720  .00007321  00000+0  36516-3 0  99902 40025  98.0976 154.4718 0007249 313.3224  46.7403 15.17843028649509

JSON: /api/v1/satellites/40025 · /tle

For live sub-satellite position, see the globe view (requires WebGL).

§ Visibility from observer

Set your observer location to see the next 7 days of passes ≥ 10°. The values pass through the URL so the page stays shareable.

No JS? Fill the form by hand. The geolocation button needs JavaScript.

§ Radio — SatNOGS DB

ModeDescriptionDownlinkUplink
BPSK BPSK Telemetry 145.815 MHz
CW CW Beacon 145.880 MHz
USB Linear Transponder 145.935 MHz–145.965 MHz 435.047 MHz–435.077 MHz
BPSK PE0SAT - 1k2 BPSK TLM 145.814 MHz

4 transmitters · refreshed weekly from db.satnogs.org